Content
SEND FEEDBACK

Daily
Averages
Monthly
Summary
United States of America

CHICAGO, ILLINOIS


Home > North America > United States > Illinois
Elevation: 674 feet     Latitude: 41 59N     Longitude: 087 54W

WEATHER
 
SELECT A DAY
Number of Records: 197,283;   Date Range: 7/8/95 - 10/1/14
 
SHARE

PRINT THIS DATA

[ ← Previous Day ]
WEATHER ALMANAC - MARCH 25, 2013
[ Next Day → ]
[ °C ]   °F
Weather ElementAverageHighLow
Temperature33.9 °F37 °F (10:52 am)32 °F (4:52 am)
Dewpoint24.8 °F28 °F (12:52 pm)21.9 °F (2:52 am)
Humidity69.6 %79 % (12:52 pm)61 % (5:52 pm)
Barometer29.88 in30.10 in (10:52 pm)29.74 in (3:52 am)
Wind Speed12.5 mph17.3 mph (8:52 am)
Wind Gust32.2 mph (10:52 am)
Weather ElementAverage
Visibility9.4 mi
Wind DirectionSSE (168 °)

Weather ElementTotal
Precipitation---
Heating Degree Days30.5 (Base 65)
Averaged from 30 records on March 25, 2013
WEATHER CONDITIONS BREAKOUT
WIND DIRECTION BREAKOUT
WEATHER BY HOUR - MARCH 25, 2013
[ °C ]   °F
Local TimeTemperatureDewpointHumidityBarometerVisibilityWind DirectionWind SpeedGust SpeedPrecipitationEventsConditions
1:52 AM34.0 °F23.0 °F64 %29.75 in10.0 miNNE (20°)13.8 mph23.0 mphOvercast
2:52 AM33.1 °F21.9 °F64 %29.75 in10.0 miNNE (20°)16.1 mph26.5 mphOvercast
3:52 AM33.1 °F21.9 °F64 %29.74 in10.0 miNNE (30°)15.0 mph24.2 mphOvercast
4:52 AM32.0 °F21.9 °F66 %29.75 in10.0 miNNE (20°)15.0 mph23.0 mphOvercast
5:34 AM33.8 °F23.0 °F65 %29.74 in10.0 miNorth (10°)16.1 mph23.0 mphOvercast
5:52 AM33.1 °F24.1 °F70 %29.76 in10.0 miNNE (20°)12.7 mph20.7 mphOvercast
6:28 AM33.8 °F24.8 °F70 %29.75 in10.0 miNNE (20°)15.0 mph19.6 mphOvercast
6:52 AM33.1 °F25.0 °F72 %29.77 in10.0 miNorth (10°)12.7 mph23.0 mphOvercast
7:03 AM33.8 °F24.8 °F70 %29.76 in10.0 miNNE (20°)12.7 mph21.9 mphOvercast
7:52 AM34.0 °F26.1 °F73 %29.79 in10.0 miNorth (10°)15.0 mph21.9 mphOvercast
8:00 AM33.8 °F26.6 °F75 %29.77 in10.0 miNorth (10°)13.8 mph24.2 mphOvercast
8:52 AM34.0 °F26.1 °F73 %29.82 in10.0 miNNE (20°)17.3 mph24.2 mphOvercast
9:52 AM34.0 °F26.1 °F73 %29.84 in10.0 miNorth (10°)12.7 mph26.5 mphOvercast
10:36 AM35.6 °F26.6 °F70 %29.84 in10.0 miNNE (20°)12.7 mph24.2 mphOvercast
10:52 AM37.0 °F26.1 °F65 %29.86 in10.0 miNorth (10°)15.0 mph32.2 mphOvercast
11:36 AM35.6 °F26.6 °F70 %29.86 in6.0 miNorth (350°)13.8 mph19.6 mph0.00 inSnowLight Snow
11:52 AM36.0 °F27.0 °F70 %29.88 in10.0 miNorth (350°)10.4 mph0.00 inOvercast
12:52 PM34.0 °F28.0 °F79 %29.90 in3.0 miNorth (350°)11.5 mph24.2 mph0.00 inSnowLight Snow
1:52 PM34.0 °F27.0 °F75 %29.91 in4.0 miNNW (340°)9.2 mph0.00 inSnowLight Snow
2:52 PM35.1 °F25.0 °F67 %29.93 in10.0 miNorth (10°)17.3 mph24.2 mph0.00 inOvercast
3:52 PM34.0 °F26.1 °F73 %29.95 in10.0 miNorth (350°)15.0 mph24.2 mph0.00 inOvercast
4:14 PM33.8 °F24.8 °F70 %29.94 in10.0 miNNW (340°)11.5 mph23.0 mph0.00 inOvercast
4:52 PM34.0 °F24.1 °F67 %29.98 in10.0 miNNW (330°)12.7 mph0.00 inOvercast
5:52 PM34.0 °F21.9 °F61 %30.01 in10.0 miNorth (350°)11.5 mph21.9 mph0.00 inOvercast
6:52 PM33.1 °F23.0 °F66 %30.04 in10.0 miNorth (360°)6.9 mph0.00 inOvercast
7:52 PM33.1 °F24.1 °F70 %30.06 in10.0 miNNW (340°)9.2 mphOvercast
8:52 PM33.1 °F25.0 °F72 %30.08 in10.0 miNNW (330°)8.1 mphOvercast
9:52 PM33.1 °F25.0 °F72 %30.09 in10.0 miNW (320°)9.2 mph0.00 inOvercast
10:52 PM33.1 °F24.1 °F70 %30.10 in10.0 miNNW (340°)6.9 mphOvercast
11:52 PM32.0 °F24.1 °F73 %30.10 in10.0 miNNW (330°)5.8 mphOvercast
Hourly data recorded from KPWK, located miles away from Chicago, Illinois







STORIES FROM OUR PARTNERS